map of KPIL home
KPIL - Airport
Location
City:  Port Isabel, Texas, United States
Name:Port Isabel-Cameron County Airport
ICAO:KPIL
FAA LID:PIL

Details
Type:Airport (Airfield)
Use:Public/Civil
Latitude:2609'58"N (26.166194)
Longitude:9720'45"W (-97.345888)
Datum:WGS 1984
Elevation:18 ft (5 m)
Variation:3.56E (WMM2015v2 magnetic declination)
-0.11 annual change
Runways:4
Longest:8001 × 200 ft (2439 × 61 m), paved

Time
Time Zone:UTC-6 (DST-5)
Local Time:

Weather
METAR:KPIL 041407Z AUTO 16005KT 2 1/2SM BR OVC002 21/21 A2989 RMK AO2 CIG 002V007 T02110206

Related Locations
Nearby:
Farthest:RRG: 11141 mi / 17930 km
Plaine Corail [Sir Gatan Duval Airport (Plaine Corail Airport)], Rodrigues Island, MU

Find:

   beyond  
but within

Other Information
Maps:
NOTAMs:
Links:
Sources:

  
  • flag of United States
  • flag of Texas
  

Sectional Chart

Flight Planning
at skyvector.com

Satellite Image

Google Maps Satellite view

 

Copyright © 2004-2019 Karl L. Swartz. All rights reserved.
The Great Circle Mapper name and logo are trademarks of the Great Circle Mapper.
All other trademarks mentioned herein belong to their respective owners.
Please see credits for attibutions and further copyright information.

  Follow gcmap on Facebook Follow gcmap on Twitter GCmap on LinkedIn

hCard Microformat

Geo Microformat